Location: Ajisawe
(8.4333°N, 4.3833°E)
Time: 02:22:00
(UTC+00:00)

X-37B - Pass Details

Date: 07 March 2021
Orbit: 380 x 394 km, 45.0° (Epoch: 07 April)

Event Time Altitude Azimuth Distance (km) Brightness Sun altitude
Exits shadow 05:03:07 - 331° (NNW) 1,478 3.2 -13.2°
Reaches altitude 10° 05:03:17 10° 332° (NNW) 1,410 3.1 -13.1°
Maximum altitude 05:06:20 44° 46° (NE) 547 1.7 -12.4°
Drops below altitude 10° 05:09:22 10° 120° (ESE) 1,404 4.5 -11.6°
Sets 05:11:29 0° 127° (SE) 2,255 5.5 -11.1°
